SCP
0 0 -0 -0 -0 0 0 0 0 0 0 0 0 0 0 0 0 0 0 -0 -0 -0 -0 0 -0 -0 0 0 0 0 0 -0 -0 0 0 -0 -0 -0
-0 -0 0 0 0 0 0 0 0 0 0 0 0 0 0 0 0 0 0 -0 -0 0 0 -0 -0 0 0 0 0 0 0 0 0 -0 -0 -0 -0 -0
-0 0 0 -0 0 0 0 0 0 0 0 0 0 0 0 0 0 0 0 0 0 -0 -0 -0 -0 0 0 0 0 0 0 0 0 0 -0 -0 -0 0
0 0 0 0 -0 0 0 0 0 0 0 0 0 0 0 0 0 0 0 0 0 -0 -0 -0 -0 -0 0 0 -0 -0 0 0 0 -0 -0 -0 0 0
0 0 -0 0 0 0 0 0 0 0 0 0 0 0 0 0 0 0 0 0 0 -0 -0 -0 -0 0 0 -0 0 0 0 0 -0 -0 -0 0 0 0
0 -0 -0 -0 -0 0 0 0 0 0 0 0 0 0 0 0 0 0 0 0 0 0 0 -0 0 0 0 -0 0 0 -0 -0 -0 -0 0 0 0 0
0 -0 0 0 0 0 0 0 0 0 0 0 0 0 0 0 0 0 0 0 0 0 0 0 0 0 -0 0 0 -0 -0 -0 -0 0 0 0 0 0
0 0 0 0 0 0 0 0 0 0 0 0 0 0 0 0 0 0 0 0 0 0 0 0 -0 -0 0 0 -0 -0 -0 -0 0 0 0 0 0 0
0 0 0 0 0 0 0 0 0 0 0 0 0 0 0 0 0 0 0 0 0 0 -0 0 0 0 0 0 -0 -0 -0 0 0 0 0 0 0 0
0 0 0 0 0 0 0 0 0 0 0 0 0 0 0 0 0 0 0 0 0 -0 0 0 0 -0 -0 0 0 0 0 0 0 0 0 0 0 0
0 0 0 0 0 0 0 0 0 0 0 0 0 0 0 0 0 0 -0 0 0 0 0 0 -0 -0 0 -0 0 0 0 0 0 0 0 0 0 0
0 -0 -0 0 0 0 0 0 0 0 0 0 0 0 0 0 0 0 0 0 0 0 -0 -0 0 -0 0 -0 0 0 0 0 0 0 0 0 0 0
0 -0 -0 -0 0 0 0 0 0 0 0 0 0 0 0 0 0 0 0 0 0 0 -0 -0 -0 0 -0 0 0 0 0 0 0 0 0 0 0 0
-0 -0 -0 -0 -0 0 0 0 0 -0 0 0 0 0 0 0 0 0 0 0 0 0 -0 -0 -0 0 0 0 0 0 0 0 0 0 0 0 0 0
-0 -0 -0 -0 -0 -0 -0 -0 -0 -0 -0 -0 -0 -0 -0 -0 0 0 0 0 -0 -0 -0 -0 0 0 0 0 0 0 0 0 0 0 0 0 0 0
-0 -0 -0 -0 0 -0 -0 -0 0 0 0 0 0 -0 -0 -0 0 0 -0 -0 -0 -0 -0 -0 0 0 0 0 0 0 0 0 0 0 0 0 0 0
0 0 0 0 0 -0 -0 -0 0 -0 0 0 0 -0 -0 -0 -0 -0 -0 -0 0 -0 -0 0 0 0 0 0 0 0 0 0 0 0 0 0 0 0
0 0 0 0 0 -0 -0 -0 -0 -0 -0 -0 -0 -0 -0 -0 -0 -0 -0 0 0 0 0 0 0 0 0 0 0 0 0 0 0 0 0 0 0 0
0 -0 -0 0 -0 -0 -0 -0 -0 -0 -0 -0 -0 -0 -0 -0 0 -0 -0 0 0 0 0 0 0 0 0 0 0 0 0 0 0 0 0 0 0 0
-0 -0 -0 -0 -0 -0 -0 -0 -0 -0 -0 -0 -0 -0 -0 -0 -0 -0 -0 -0 0 0 0 0 0 0 0 0 0 0 0 0 0 0 0 0 0 0
-0 -0 -0 -0 -0 -0 -0 -0 -0 -0 0 0 0 -0 -0 -0 -0 -0 -0 -0 0 0 0 0 0 0 0 0 0 0 0 0 0 0 0 0 0 0
0 0 -0 0 -0 -0 -0 0 0 0 0 -0 -0 -0 -0 -0 -0 -0 -0 0 0 0 0 0 0 0 0 0 0 0 0 0 0 0 0 0 0 0
-0 0 0 0 0 0 0 0 -0 -0 -0 -0 0 0 0 0 0 0 0 0 0 0 0 0 0 0 0 0 0 0 0 0 0 0 0 0 0 0
Wind_Speed_500mb
11 16 19 24 26 28 23 38 42 27 32 29 23 31 32 37 40 48 52 62 62 53 57 79 70 73 61 56 47 39 33 21 21 18 15 11 7 5
7 12 18 23 28 28 21 30 36 36 31 34 25 28 29 37 43 47 57 66 58 53 64 69 64 65 53 44 38 33 25 22 19 14 9 6 6 10
15 11 15 19 21 25 31 34 41 40 34 41 35 27 39 44 56 54 62 63 63 60 78 65 61 52 47 40 35 27 23 16 12 9 6 6 12 17
11 19 16 18 19 21 25 30 35 42 42 49 42 43 55 60 66 71 76 72 80 71 65 66 57 54 47 42 37 29 24 21 14 11 11 14 16 14
11 16 17 20 26 27 19 21 33 35 41 56 53 52 70 74 71 87 85 78 79 71 64 58 49 41 40 34 28 26 23 20 17 13 12 11 14 15
19 16 20 22 16 21 25 31 39 45 55 58 56 65 69 84 90 94 93 84 77 66 58 48 43 35 35 34 28 25 21 16 12 10 11 13 12 10
18 19 21 18 19 20 38 45 41 44 60 68 79 87 87 87 96 93 84 76 66 59 57 48 42 40 34 28 25 21 15 13 11 10 10 10 8 6
27 24 18 17 17 28 35 32 30 47 68 86 99 100 95 100 97 91 90 80 61 52 61 52 41 35 29 25 20 17 16 11 9 9 10 9 7 8
24 27 24 20 23 47 48 51 64 80 85 91 97 101 100 94 90 82 75 72 71 60 51 48 39 30 27 23 22 20 13 9 10 11 10 8 9 11
23 30 30 29 37 52 62 58 75 84 92 97 91 97 90 87 80 76 73 67 61 54 43 43 38 30 26 25 22 16 12 12 13 13 13 13 14 14
23 29 30 34 46 62 66 73 70 63 80 76 73 79 76 68 59 59 62 62 56 50 45 25 34 31 26 25 23 20 17 17 16 15 15 15 16 18
23 28 32 43 47 63 61 52 61 57 50 58 67 63 52 48 49 50 53 53 54 46 41 24 33 28 22 28 28 25 23 20 18 17 19 22 21 19
33 35 35 43 50 59 43 53 52 51 47 56 59 57 54 52 50 40 36 36 40 18 35 26 28 28 18 13 28 25 21 21 23 25 25 25 23 20
39 40 37 40 42 47 43 45 48 51 55 56 58 58 59 53 45 38 30 23 22 7 13 15 6 19 22 17 16 22 24 24 27 26 27 28 23 21
37 43 40 39 44 40 44 42 47 55 62 60 58 56 48 37 35 34 31 25 22 25 17 13 12 16 22 27 28 24 25 26 25 27 26 27 22 22
43 49 41 43 44 45 43 46 56 57 57 47 48 50 49 43 34 35 34 30 30 27 26 25 25 31 36 34 35 37 33 29 29 30 26 27 25 22
45 50 47 46 42 45 47 46 56 55 56 52 41 40 48 49 39 34 35 33 31 28 28 29 33 38 43 46 48 46 46 47 43 34 32 29 26 23
50 49 47 46 50 53 56 55 50 49 54 51 41 42 44 47 46 43 41 41 39 36 38 39 42 45 50 55 52 53 51 51 49 44 36 33 30 26
40 39 40 42 44 50 59 59 55 51 48 43 41 42 42 43 44 45 46 45 45 45 45 46 51 53 57 63 60 60 54 52 52 50 42 38 34 32
33 38 39 42 48 48 50 51 53 49 46 43 44 44 44 44 45 48 49 49 50 51 51 53 58 60 57 56 58 58 50 53 54 49 47 43 37 36
44 42 39 41 49 52 48 46 45 44 41 42 44 45 45 47 46 48 50 49 49 53 58 59 55 50 51 52 55 56 51 50 52 50 45 37 42 43
49 49 47 45 47 51 51 52 49 48 47 47 50 49 52 56 59 57 57 58 57 58 60 58 58 56 58 58 61 64 59 51 54 53 47 47 41 40
55 56 58 57 56 56 57 58 58 59 58 56 57 61 64 63 61 64 65 65 66 65 63 65 68 67 67 66 67 68 66 61 58 57 50 48 38 39
Wind_Direction_500mb
247 227 218 206 209 217 222 207 202 174 199 200 195 208 213 200 200 195 191 188 188 188 193 192 184 181 173 176 162 160 161 163 151 156 162 157 172 235
210 188 203 205 205 215 210 209 210 217 181 188 181 185 198 187 186 186 181 182 186 191 187 188 166 163 168 159 172 153 159 154 164 175 180 203 263 294
242 219 205 203 204 215 216 198 199 213 214 178 192 186 193 181 179 175 179 182 185 187 186 161 159 160 158 151 147 162 164 179 188 211 226 268 280 292
232 210 203 197 184 193 187 192 210 216 211 171 159 167 172 175 174 167 170 180 180 171 150 155 156 153 150 159 162 171 197 202 204 215 241 267 283 283
224 206 195 174 169 177 237 196 185 178 186 162 154 161 158 157 166 162 164 146 141 139 143 150 156 153 163 171 168 154 169 188 207 233 259 259 268 269
199 198 179 168 164 164 163 165 157 155 159 157 147 154 158 156 161 147 143 142 145 152 153 148 144 144 134 140 156 170 180 198 219 219 242 252 264 281
167 163 164 171 177 183 159 154 157 159 160 158 149 141 150 151 147 147 143 148 150 151 147 146 153 161 163 162 170 180 189 187 207 235 254 270 267 249
140 140 147 164 174 175 169 173 184 171 168 161 151 145 145 149 147 149 152 155 145 156 150 157 164 164 165 172 180 184 182 199 226 253 255 245 244 263
135 132 130 137 158 159 159 164 162 160 163 162 149 154 150 151 152 156 156 160 157 157 165 159 160 173 179 181 183 185 197 229 254 251 246 247 258 265
125 131 127 130 138 148 142 151 148 148 152 157 154 154 153 158 159 162 165 161 154 156 171 168 168 177 189 189 190 195 219 242 251 250 246 247 252 273
112 124 130 141 138 145 141 139 140 145 147 149 153 154 155 161 164 159 161 161 156 166 175 189 176 180 192 201 203 214 231 243 246 247 247 251 262 278
122 126 133 144 148 152 148 142 147 148 153 155 158 157 161 161 168 168 163 168 165 169 178 189 190 188 203 212 215 224 237 246 250 255 255 254 263 278
136 135 134 146 151 162 155 150 143 149 150 153 154 157 160 162 168 174 177 178 170 157 178 176 195 203 206 227 226 233 248 255 251 249 253 257 262 274
142 146 147 148 156 166 161 156 153 151 155 157 159 162 162 167 165 160 158 159 182 105 163 193 208 223 232 246 246 241 245 248 244 246 251 256 264 284
154 151 145 157 163 158 166 157 158 163 159 164 166 167 164 157 160 166 169 177 188 200 215 212 236 259 252 258 264 269 256 262 256 248 257 264 271 287
149 152 157 158 165 178 169 170 175 173 168 172 177 177 175 173 173 183 185 187 196 207 226 244 249 253 257 269 272 272 274 267 276 257 253 251 252 285
154 150 149 157 170 177 178 188 189 192 195 187 180 184 190 193 195 199 206 214 220 232 249 261 261 258 256 260 268 274 276 276 277 265 251 259 256 295
159 158 165 171 176 184 184 182 182 186 187 190 196 198 199 202 208 215 221 227 235 246 255 261 265 262 260 263 267 274 272 268 263 255 253 250 254 274
175 173 173 176 178 182 188 188 189 184 188 196 203 207 209 214 221 227 230 234 242 246 254 264 264 262 260 263 275 274 275 269 259 250 248 243 249 275
195 195 191 185 183 179 179 182 183 188 192 199 207 211 215 221 226 229 233 240 249 256 258 261 259 261 262 270 274 276 273 265 258 252 241 239 256 287
196 196 196 195 194 192 192 191 192 197 203 213 220 223 225 231 238 243 248 254 263 268 264 261 269 275 272 267 264 267 266 258 248 246 236 248 270 302
202 200 199 199 198 200 202 202 208 216 221 228 233 239 241 242 247 253 258 259 264 266 267 269 268 267 267 269 271 269 267 261 246 229 232 270 269 292
215 212 208 207 206 207 210 216 223 224 227 232 237 242 245 247 247 253 257 259 262 267 271 272 269 267 268 269 270 268 264 259 247 232 237 269 268 281
Wind_Speed_850mb
11 16 19 24 26 28 23 38 42 27 32 29 23 31 32 37 40 48 52 62 62 53 57 79 70 73 61 56 47 39 33 21 21 18 15 11 7 5
7 12 18 23 28 28 21 30 36 36 31 34 25 28 29 37 43 47 57 66 58 53 64 69 64 65 53 44 38 33 25 22 19 14 9 6 6 10
15 11 15 19 21 25 31 34 41 40 34 41 35 27 39 44 56 54 62 63 63 60 78 65 61 52 47 40 35 27 23 16 12 9 6 6 12 17
11 19 16 18 19 21 25 30 35 42 42 49 42 43 55 60 66 71 76 72 80 71 65 66 57 54 47 42 37 29 24 21 14 11 11 14 16 14
11 16 17 20 26 27 19 21 33 35 41 56 53 52 70 74 71 87 85 78 79 71 64 58 49 41 40 34 28 26 23 20 17 13 12 11 14 15
19 16 20 22 16 21 25 31 39 45 55 58 56 65 69 84 90 94 93 84 77 66 58 48 43 35 35 34 28 25 21 16 12 10 11 13 12 10
18 19 21 18 19 20 38 45 41 44 60 68 79 87 87 87 96 93 84 76 66 59 57 48 42 40 34 28 25 21 15 13 11 10 10 10 8 6
27 24 18 17 17 28 35 32 30 47 68 86 99 100 95 100 97 91 90 80 61 52 61 52 41 35 29 25 20 17 16 11 9 9 10 9 7 8
24 27 24 20 23 47 48 51 64 80 85 91 97 101 100 94 90 82 75 72 71 60 51 48 39 30 27 23 22 20 13 9 10 11 10 8 9 11
23 30 30 29 37 52 62 58 75 84 92 97 91 97 90 87 80 76 73 67 61 54 43 43 38 30 26 25 22 16 12 12 13 13 13 13 14 14
23 29 30 34 46 62 66 73 70 63 80 76 73 79 76 68 59 59 62 62 56 50 45 25 34 31 26 25 23 20 17 17 16 15 15 15 16 18
23 28 32 43 47 63 61 52 61 57 50 58 67 63 52 48 49 50 53 53 54 46 41 24 33 28 22 28 28 25 23 20 18 17 19 22 21 19
33 35 35 43 50 59 43 53 52 51 47 56 59 57 54 52 50 40 36 36 40 18 35 26 28 28 18 13 28 25 21 21 23 25 25 25 23 20
39 40 37 40 42 47 43 45 48 51 55 56 58 58 59 53 45 38 30 23 22 7 13 15 6 19 22 17 16 22 24 24 27 26 27 28 23 21
37 43 40 39 44 40 44 42 47 55 62 60 58 56 48 37 35 34 31 25 22 25 17 13 12 16 22 27 28 24 25 26 25 27 26 27 22 22
43 49 41 43 44 45 43 46 56 57 57 47 48 50 49 43 34 35 34 30 30 27 26 25 25 31 36 34 35 37 33 29 29 30 26 27 25 22
45 50 47 46 42 45 47 46 56 55 56 52 41 40 48 49 39 34 35 33 31 28 28 29 33 38 43 46 48 46 46 47 43 34 32 29 26 23
50 49 47 46 50 53 56 55 50 49 54 51 41 42 44 47 46 43 41 41 39 36 38 39 42 45 50 55 52 53 51 51 49 44 36 33 30 26
40 39 40 42 44 50 59 59 55 51 48 43 41 42 42 43 44 45 46 45 45 45 45 46 51 53 57 63 60 60 54 52 52 50 42 38 34 32
33 38 39 42 48 48 50 51 53 49 46 43 44 44 44 44 45 48 49 49 50 51 51 53 58 60 57 56 58 58 50 53 54 49 47 43 37 36
44 42 39 41 49 52 48 46 45 44 41 42 44 45 45 47 46 48 50 49 49 53 58 59 55 50 51 52 55 56 51 50 52 50 45 37 42 43
49 49 47 45 47 51 51 52 49 48 47 47 50 49 52 56 59 57 57 58 57 58 60 58 58 56 58 58 61 64 59 51 54 53 47 47 41 40
55 56 58 57 56 56 57 58 58 59 58 56 57 61 64 63 61 64 65 65 66 65 63 65 68 67 67 66 67 68 66 61 58 57 50 48 38 39
Wind_Direction_850mb
247 227 218 206 209 217 222 207 202 174 199 200 195 208 213 200 200 195 191 188 188 188 193 192 184 181 173 176 162 160 161 163 151 156 162 157 172 235
210 188 203 205 205 215 210 209 210 217 181 188 181 185 198 187 186 186 181 182 186 191 187 188 166 163 168 159 172 153 159 154 164 175 180 203 263 294
242 219 205 203 204 215 216 198 199 213 214 178 192 186 193 181 179 175 179 182 185 187 186 161 159 160 158 151 147 162 164 179 188 211 226 268 280 292
232 210 203 197 184 193 187 192 210 216 211 171 159 167 172 175 174 167 170 180 180 171 150 155 156 153 150 159 162 171 197 202 204 215 241 267 283 283
224 206 195 174 169 177 237 196 185 178 186 162 154 161 158 157 166 162 164 146 141 139 143 150 156 153 163 171 168 154 169 188 207 233 259 259 268 269
199 198 179 168 164 164 163 165 157 155 159 157 147 154 158 156 161 147 143 142 145 152 153 148 144 144 134 140 156 170 180 198 219 219 242 252 264 281
167 163 164 171 177 183 159 154 157 159 160 158 149 141 150 151 147 147 143 148 150 151 147 146 153 161 163 162 170 180 189 187 207 235 254 270 267 249
140 140 147 164 174 175 169 173 184 171 168 161 151 145 145 149 147 149 152 155 145 156 150 157 164 164 165 172 180 184 182 199 226 253 255 245 244 263
135 132 130 137 158 159 159 164 162 160 163 162 149 154 150 151 152 156 156 160 157 157 165 159 160 173 179 181 183 185 197 229 254 251 246 247 258 265
125 131 127 130 138 148 142 151 148 148 152 157 154 154 153 158 159 162 165 161 154 156 171 168 168 177 189 189 190 195 219 242 251 250 246 247 252 273
112 124 130 141 138 145 141 139 140 145 147 149 153 154 155 161 164 159 161 161 156 166 175 189 176 180 192 201 203 214 231 243 246 247 247 251 262 278
122 126 133 144 148 152 148 142 147 148 153 155 158 157 161 161 168 168 163 168 165 169 178 189 190 188 203 212 215 224 237 246 250 255 255 254 263 278
136 135 134 146 151 162 155 150 143 149 150 153 154 157 160 162 168 174 177 178 170 157 178 176 195 203 206 227 226 233 248 255 251 249 253 257 262 274
142 146 147 148 156 166 161 156 153 151 155 157 159 162 162 167 165 160 158 159 182 105 163 193 208 223 232 246 246 241 245 248 244 246 251 256 264 284
154 151 145 157 163 158 166 157 158 163 159 164 166 167 164 157 160 166 169 177 188 200 215 212 236 259 252 258 264 269 256 262 256 248 257 264 271 287
149 152 157 158 165 178 169 170 175 173 168 172 177 177 175 173 173 183 185 187 196 207 226 244 249 253 257 269 272 272 274 267 276 257 253 251 252 285
154 150 149 157 170 177 178 188 189 192 195 187 180 184 190 193 195 199 206 214 220 232 249 261 261 258 256 260 268 274 276 276 277 265 251 259 256 295
159 158 165 171 176 184 184 182 182 186 187 190 196 198 199 202 208 215 221 227 235 246 255 261 265 262 260 263 267 274 272 268 263 255 253 250 254 274
175 173 173 176 178 182 188 188 189 184 188 196 203 207 209 214 221 227 230 234 242 246 254 264 264 262 260 263 275 274 275 269 259 250 248 243 249 275
195 195 191 185 183 179 179 182 183 188 192 199 207 211 215 221 226 229 233 240 249 256 258 261 259 261 262 270 274 276 273 265 258 252 241 239 256 287
196 196 196 195 194 192 192 191 192 197 203 213 220 223 225 231 238 243 248 254 263 268 264 261 269 275 272 267 264 267 266 258 248 246 236 248 270 302
202 200 199 199 198 200 202 202 208 216 221 228 233 239 241 242 247 253 258 259 264 266 267 269 268 267 267 269 271 269 267 261 246 229 232 270 269 292
215 212 208 207 206 207 210 216 223 224 227 232 237 242 245 247 247 253 257 259 262 267 271 272 269 267 268 269 270 268 264 259 247 232 237 269 268 281